AAL813 KASE-KGTF

Flight info

Callsign AAL813
Flight time N/A
Altitude 38000
Route LINDZ1 DBL BOJOL KUBZD
Aircraft A319/M-SDE3FGHIRWY/LB1

Departure

Time 2026-04-30 21:38
Airport Aspen-Pitkin County Airport (Sardy Field) (KASE)

Arrival

Time N/A
Airport Great Falls International Airport (KGTF)
Time Latitude Longitude Altitude Speed Heading
2026-04-30 21:27 39.21929 -106.86467 7794 ft 0 kts 74°
2026-04-30 21:32 39.21924 -106.86492 7782 ft 3 kts 74°
2026-04-30 21:32 39.21919 -106.86515 7785 ft 3 kts 74°
2026-04-30 21:32 39.21914 -106.86539 7784 ft 3 kts 101°
2026-04-30 21:32 39.21923 -106.86562 7779 ft 3 kts 148°
2026-04-30 21:33 39.21934 -106.86569 7782 ft 0 kts 176°
2026-04-30 21:34 39.21892 -106.86562 7795 ft 17 kts 169°
2026-04-30 21:34 39.21778 -106.86509 7802 ft 15 kts 155°
2026-04-30 21:35 39.21698 -106.86470 7810 ft 10 kts 160°
2026-04-30 21:35 39.21643 -106.86444 7814 ft 11 kts 160°
2026-04-30 21:35 39.21522 -106.86387 7823 ft 19 kts 160°
2026-04-30 21:35 39.21415 -106.86337 7830 ft 13 kts 159°
2026-04-30 21:36 39.21343 -106.86302 7835 ft 10 kts 159°
2026-04-30 21:36 39.21251 -106.86255 7839 ft 15 kts 159°
2026-04-30 21:37 39.21219 -106.86362 7837 ft 0 kts 343°
2026-04-30 21:37 39.21303 -106.86401 7840 ft 47 kts 339°
2026-04-30 21:37 39.21850 -106.86664 7798 ft 118 kts 340°
2026-04-30 21:37 39.22812 -106.87119 7724 ft 174 kts 340°
2026-04-30 21:38 39.24029 -106.87693 8052 ft 189 kts 337°
2026-04-30 21:38 39.25329 -106.88107 8808 ft 194 kts 348°
2026-04-30 21:38 39.26584 -106.88645 9530 ft 191 kts 327°
2026-04-30 21:38 39.27410 -106.90029 9855 ft 207 kts 288°
2026-04-30 21:39 39.27650 -106.91944 10231 ft 225 kts 279°
2026-04-30 21:39 39.27898 -106.94078 10337 ft 258 kts 280°
2026-04-30 21:39 39.28228 -106.96463 10764 ft 282 kts 281°
2026-04-30 21:39 39.28615 -106.99058 11181 ft 307 kts 282°
2026-04-30 21:40 39.29309 -107.01751 11594 ft 328 kts 300°
2026-04-30 21:40 39.30623 -107.04209 12355 ft 336 kts 308°
2026-04-30 21:40 39.32154 -107.06513 13245 ft 340 kts 312°
2026-04-30 21:40 39.33781 -107.08753 14062 ft 344 kts 313°
2026-04-30 21:41 39.35460 -107.10987 14798 ft 349 kts 316°
2026-04-30 21:41 39.37534 -107.12638 15494 ft 357 kts 341°
2026-04-30 21:41 39.40014 -107.12934 16233 ft 366 kts
2026-04-30 21:41 39.42376 -107.11800 16997 ft 374 kts 32°
2026-04-30 21:42 39.44215 -107.09394 17763 ft 383 kts 57°
2026-04-30 21:42 39.45127 -107.06156 18486 ft 390 kts 83°
2026-04-30 21:42 39.45075 -107.02643 19155 ft 393 kts 95°
2026-04-30 21:42 39.45056 -106.99092 19789 ft 397 kts 84°
2026-04-30 21:43 39.45725 -106.95628 20438 ft 400 kts 64°
2026-04-30 21:43 39.47365 -106.92748 21097 ft 400 kts 39°
2026-04-30 21:43 39.49751 -106.90955 21726 ft 399 kts 15°
2026-04-30 21:43 39.52483 -106.90557 22371 ft 397 kts 352°
2026-04-30 21:44 39.55104 -106.91579 23004 ft 395 kts 331°
2026-04-30 21:44 39.57497 -106.93355 23627 ft 398 kts 327°
2026-04-30 21:44 39.59883 -106.95194 24150 ft 401 kts 327°
2026-04-30 21:44 39.62284 -106.97050 24656 ft 403 kts 327°
2026-04-30 21:45 39.64769 -106.98758 25148 ft 407 kts 333°
2026-04-30 21:45 39.67402 -107.00152 25643 ft 410 kts 337°
2026-04-30 21:45 39.70118 -107.01335 26119 ft 414 kts 340°
2026-04-30 21:45 39.72886 -107.02416 26585 ft 417 kts 340°
2026-04-30 21:46 39.75675 -107.03485 27026 ft 420 kts 340°
2026-04-30 21:46 39.78474 -107.04597 27501 ft 422 kts 339°
2026-04-30 21:46 39.81272 -107.05768 27937 ft 424 kts 338°
2026-04-30 21:46 39.84078 -107.06990 28370 ft 426 kts 337°
2026-04-30 21:47 39.86893 -107.08245 28782 ft 429 kts 337°
2026-04-30 21:47 39.89719 -107.09519 29206 ft 431 kts 337°
2026-04-30 21:47 39.92563 -107.10800 29634 ft 433 kts 337°
2026-04-30 21:47 39.95423 -107.12079 30061 ft 436 kts 337°
2026-04-30 21:48 39.98304 -107.13359 30420 ft 439 kts 337°
2026-04-30 21:48 40.01199 -107.14640 30757 ft 441 kts 337°
2026-04-30 21:48 40.04113 -107.15929 31090 ft 443 kts 336°
2026-04-30 21:48 40.07043 -107.17229 31413 ft 446 kts 336°
2026-04-30 21:49 40.09989 -107.18536 31782 ft 447 kts 336°
2026-04-30 21:49 40.12931 -107.19842 32268 ft 446 kts 336°
2026-04-30 21:49 40.15866 -107.21148 32750 ft 445 kts 336°
2026-04-30 21:49 40.18796 -107.22454 33227 ft 444 kts 336°
2026-04-30 21:50 40.21722 -107.23757 33702 ft 444 kts 336°
2026-04-30 21:50 40.24642 -107.25056 34184 ft 443 kts 336°
2026-04-30 21:50 40.27559 -107.26357 34609 ft 442 kts 336°
2026-04-30 21:50 40.30465 -107.27658 35022 ft 441 kts 336°
2026-04-30 21:51 40.33367 -107.28963 35442 ft 441 kts 336°
2026-04-30 21:51 40.36266 -107.30265 35847 ft 440 kts 336°
2026-04-30 21:51 40.39167 -107.31565 36234 ft 439 kts 335°
2026-04-30 21:51 40.42058 -107.32860 36623 ft 439 kts 335°
2026-04-30 21:52 40.44946 -107.34153 37012 ft 438 kts 335°
2026-04-30 21:52 40.47828 -107.35445 37395 ft 437 kts 335°
2026-04-30 21:52 40.50707 -107.36740 37766 ft 437 kts 335°
2026-04-30 21:52 40.53579 -107.38036 38098 ft 438 kts 335°
2026-04-30 21:53 40.59335 -107.40640 38165 ft 437 kts 335°
2026-04-30 21:53 40.65081 -107.43237 38158 ft 437 kts 335°
2026-04-30 21:54 40.70821 -107.45837 38151 ft 436 kts 335°
2026-04-30 21:54 40.76563 -107.48445 38139 ft 436 kts 335°
2026-04-30 21:55 40.82305 -107.51058 38164 ft 437 kts 335°
2026-04-30 21:55 40.88053 -107.53667 38183 ft 437 kts 335°
2026-04-30 21:56 40.93802 -107.56281 38196 ft 437 kts 335°
2026-04-30 21:56 40.99549 -107.58904 38198 ft 437 kts 335°
2026-04-30 21:57 41.05293 -107.61540 38196 ft 437 kts 335°
2026-04-30 21:57 41.11042 -107.64182 38192 ft 437 kts 336°
2026-04-30 21:58 41.16800 -107.66819 38185 ft 438 kts 336°
2026-04-30 21:58 41.22557 -107.69467 38182 ft 438 kts 336°
2026-04-30 21:59 41.28312 -107.72127 38167 ft 438 kts 336°
2026-04-30 22:00 41.36950 -107.76120 38165 ft 438 kts 336°
2026-04-30 22:00 41.45588 -107.80117 38177 ft 438 kts 336°
2026-04-30 22:01 41.51346 -107.82788 38178 ft 438 kts 336°
2026-04-30 22:01 41.57102 -107.85465 38178 ft 438 kts 336°
2026-04-30 22:02 41.62856 -107.88148 38184 ft 438 kts 336°
2026-04-30 22:02 41.68603 -107.90840 38196 ft 438 kts 336°
2026-04-30 22:03 41.74351 -107.93542 38195 ft 438 kts 336°
2026-04-30 22:03 41.80061 -107.96219 38193 ft 438 kts 336°
2026-04-30 22:04 41.85849 -107.98927 38195 ft 438 kts 336°
2026-04-30 22:05 41.94473 -108.02983 38198 ft 438 kts 336°
2026-04-30 22:05 42.00214 -108.05700 38209 ft 437 kts 336°
2026-04-30 22:06 42.05955 -108.08425 38212 ft 437 kts 336°
2026-04-30 22:06 42.14522 -108.12489 38214 ft 437 kts 337°
2026-04-30 22:07 42.20258 -108.15212 38219 ft 437 kts 337°
2026-04-30 22:07 42.25992 -108.17942 38221 ft 437 kts 337°
2026-04-30 22:08 42.31722 -108.20798 38221 ft 435 kts 334°
2026-04-30 22:08 42.36358 -108.23442 38222 ft 435 kts 333°
2026-04-30 22:09 42.41898 -108.26734 38220 ft 435 kts 333°
2026-04-30 22:09 42.47455 -108.29980 38220 ft 435 kts 334°
2026-04-30 22:10 42.53949 -108.33697 38218 ft 436 kts 334°
2026-04-30 22:10 42.58633 -108.36370 38218 ft 436 kts 334°
2026-04-30 22:11 42.67016 -108.41192 38217 ft 436 kts 334°
2026-04-30 22:12 42.72602 -108.44423 38219 ft 436 kts 334°
2026-04-30 22:12 42.78186 -108.47662 38225 ft 436 kts 334°
2026-04-30 22:13 42.83774 -108.50901 38227 ft 436 kts 334°
2026-04-30 22:13 42.89358 -108.54139 38229 ft 436 kts 334°
2026-04-30 22:14 42.94939 -108.57385 38231 ft 436 kts 334°
2026-04-30 22:14 43.00511 -108.60646 38234 ft 436 kts 334°
2026-04-30 22:15 43.06082 -108.63905 38233 ft 435 kts 334°
2026-04-30 22:15 43.11650 -108.67168 38233 ft 435 kts 334°
2026-04-30 22:16 43.17210 -108.70430 38229 ft 435 kts 334°
2026-04-30 22:17 43.28325 -108.76971 38230 ft 434 kts 334°
2026-04-30 22:17 43.36645 -108.81884 38236 ft 434 kts 334°
2026-04-30 22:18 43.44966 -108.86808 38238 ft 434 kts 334°
2026-04-30 22:19 43.53275 -108.91742 38244 ft 434 kts 334°
2026-04-30 22:20 43.61580 -108.96696 38249 ft 434 kts 334°
2026-04-30 22:20 43.69887 -109.01657 38256 ft 434 kts 334°
2026-04-30 22:21 43.75423 -109.04980 38253 ft 434 kts 334°
2026-04-30 22:21 43.80960 -109.08302 38249 ft 434 kts 334°
2026-04-30 22:22 43.86498 -109.11636 38262 ft 434 kts 334°
2026-04-30 22:22 43.92001 -109.14959 38265 ft 434 kts 334°
2026-04-30 22:23 43.97578 -109.18325 38264 ft 434 kts 334°
2026-04-30 22:23 44.03118 -109.21678 38263 ft 434 kts 334°
2026-04-30 22:24 44.08661 -109.25043 38268 ft 435 kts 334°
2026-04-30 22:24 44.14203 -109.28406 38270 ft 435 kts 335°
2026-04-30 22:25 44.19707 -109.31765 38270 ft 434 kts 334°
2026-04-30 22:25 44.25243 -109.35151 38271 ft 434 kts 335°
2026-04-30 22:26 44.33584 -109.40244 38275 ft 434 kts 335°
2026-04-30 22:27 44.39116 -109.43639 38269 ft 434 kts 335°
2026-04-30 22:27 44.47413 -109.48745 38273 ft 434 kts 335°
2026-04-30 22:28 44.55660 -109.53838 38274 ft 434 kts 335°
2026-04-30 22:29 44.66703 -109.60671 38264 ft 434 kts 335°
2026-04-30 22:31 44.85997 -109.72686 38273 ft 433 kts 335°
2026-04-30 22:32 44.99507 -109.81976 38269 ft 432 kts 329°
2026-04-30 22:33 45.12514 -109.92531 38267 ft 431 kts 329°
2026-04-30 22:35 45.25500 -110.03160 38256 ft 432 kts 329°
2026-04-30 22:36 45.38501 -110.13827 38256 ft 432 kts 329°
2026-04-30 22:37 45.48906 -110.22393 38238 ft 432 kts 329°
2026-04-30 22:38 45.59291 -110.31014 38225 ft 431 kts 329°
2026-04-30 22:39 45.67074 -110.37476 38225 ft 431 kts 329°
2026-04-30 22:40 45.82624 -110.50476 38238 ft 431 kts 329°
2026-04-30 22:41 45.95548 -110.61339 38243 ft 430 kts 329°
2026-04-30 22:43 46.11025 -110.74438 37958 ft 429 kts 329°
2026-04-30 22:43 46.16165 -110.78801 37423 ft 428 kts 329°
2026-04-30 22:44 46.21297 -110.83171 36902 ft 428 kts 330°
2026-04-30 22:45 46.31594 -110.91966 34863 ft 436 kts 330°
2026-04-30 22:45 46.36849 -110.96471 32922 ft 442 kts 331°
2026-04-30 22:46 46.42186 -111.01052 30721 ft 449 kts 331°
2026-04-30 22:47 46.52581 -111.10025 28046 ft 419 kts 331°
2026-04-30 22:47 46.57516 -111.14297 26802 ft 407 kts 331°
2026-04-30 22:48 46.62314 -111.18451 25586 ft 396 kts 331°
2026-04-30 22:49 46.69294 -111.24507 23856 ft 384 kts 331°
2026-04-30 22:49 46.76040 -111.30400 22266 ft 370 kts 331°
2026-04-30 22:50 46.84678 -111.37943 20433 ft 354 kts 331°
2026-04-30 22:51 46.88847 -111.41603 19519 ft 346 kts 330°
2026-04-30 22:51 46.93011 -111.44967 18584 ft 338 kts 340°
2026-04-30 22:52 46.94498 -111.45625 18226 ft 337 kts 348°
2026-04-30 22:52 46.99112 -111.45761 17231 ft 332 kts 10°
2026-04-30 22:53 47.03482 -111.43642 16177 ft 332 kts 19°
2026-04-30 22:53 47.07836 -111.41257 15061 ft 333 kts 19°
2026-04-30 22:53 47.10004 -111.40070 14567 ft 332 kts 19°
2026-04-30 22:54 47.14318 -111.37700 13521 ft 330 kts 18°
2026-04-30 22:55 47.20690 -111.34187 11986 ft 322 kts 19°
2026-04-30 22:55 47.24856 -111.31885 10959 ft 318 kts 19°
2026-04-30 22:56 47.28910 -111.29638 10452 ft 298 kts 19°
2026-04-30 22:56 47.34170 -111.26716 10133 ft 243 kts 18°
2026-04-30 22:57 47.37135 -111.25073 9720 ft 221 kts 18°
2026-04-30 22:57 47.40184 -111.23389 8438 ft 246 kts 19°
2026-04-30 22:58 47.43292 -111.21651 7699 ft 225 kts 19°
2026-04-30 22:59 47.47102 -111.19519 7420 ft 167 kts 18°
2026-04-30 22:59 47.50084 -111.18758 6896 ft 133 kts 352°